Voltar ao catálogo

THOR ABLESTAR DEB

AtivoPO
NORAD 753·DEBRIS·🇺🇸 United States

Lançado Dec 5, 1963 de Vandenberg Space Force Base

Loading…

Próximas Passagens (próximas 24 horas)

TLE

AtualizadoSource: Space-Track

Época: Sep 14, 2026, 10:54 UTC

1 00753U 63049F   26257.45439147  .00000189  00000-0  26106-3 0  9992
2 00753  89.9117  71.9498 0025521 304.9835  83.4182 13.54968942 92645

Acompanhe THOR ABLESTAR DEB em tempo real com AllMySat

Download on the App Store